Wetterdaten: Samstag, 03.10.2015
Datum Zeit Temp. A. Feuchte A. Luftdruck Regen Wind Richtung Richtung Sonnenschein ET UV Solar Taupunkt Windchill Windben Empfang
03.10.2015 00:04 10,2 C 74 % 1018,3 hPa 0,0 l/m 0,0 km/h (0 Bft) O-NO 60 0 min 0,000 mm 0,0 UV-I 0 W/m 5,8 C 10,2 C 0,0 km/h (0 Bft) 0,00 %
03.10.2015 00:09 10,2 C 75 % 1018,2 hPa 0,0 l/m 0,0 km/h (0 Bft) O-NO 67 0 min 0,000 mm 0,0 UV-I 0 W/m 6,0 C 10,2 C 0,0 km/h (0 Bft) 0,00 %
03.10.2015 00:14 10,1 C 75 % 1018,2 hPa 0,0 l/m 0,0 km/h (0 Bft) O-NO 72 0 min 0,000 mm 0,0 UV-I 0 W/m 5,9 C 10,1 C 0,0 km/h (0 Bft) 0,00 %
03.10.2015 00:19 10,1 C 75 % 1018,2 hPa 0,0 l/m 0,0 km/h (0 Bft) O-NO 66 0 min 0,000 mm 0,0 UV-I 0 W/m 5,9 C 10,1 C 0,0 km/h (0 Bft) 0,00 %
03.10.2015 00:24 10,2 C 74 % 1018,2 hPa 0,0 l/m 0,0 km/h (0 Bft) O-NO 68 0 min 0,000 mm 0,0 UV-I 0 W/m 5,8 C 10,2 C 0,0 km/h (0 Bft) 0,00 %
03.10.2015 00:29 10,4 C 74 % 1018,1 hPa 0,0 l/m 0,4 km/h (0 Bft) O-SO 112 0 min 0,000 mm 0,0 UV-I 0 W/m 6,0 C 10,4 C 4,0 km/h (1 Bft) 0,00 %
03.10.2015 00:34 10,5 C 74 % 1018,1 hPa 0,0 l/m 0,0 km/h (0 Bft) O-NO 66 0 min 0,000 mm 0,0 UV-I 0 W/m 6,1 C 10,5 C 0,0 km/h (0 Bft) 0,00 %
03.10.2015 00:39 10,5 C 74 % 1018,1 hPa 0,0 l/m 0,0 km/h (0 Bft) O-NO 65 0 min 0,000 mm 0,0 UV-I 0 W/m 6,1 C 10,5 C 0,0 km/h (0 Bft) 0,00 %
03.10.2015 00:44 10,3 C 76 % 1017,9 hPa 0,0 l/m 0,4 km/h (0 Bft) O 81 0 min 0,000 mm 0,0 UV-I 0 W/m 6,3 C 10,3 C 4,0 km/h (1 Bft) 0,00 %
03.10.2015 00:49 10,0 C 78 % 1018,0 hPa 0,0 l/m 0,0 km/h (0 Bft) O 85 0 min 0,000 mm 0,0 UV-I 0 W/m 6,3 C 10,0 C 0,0 km/h (0 Bft) 0,00 %
03.10.2015 00:54 9,7 C 78 % 1018,0 hPa 0,0 l/m 0,0 km/h (0 Bft) O-NO 60 0 min 0,000 mm 0,0 UV-I 0 W/m 6,1 C 9,7 C 0,0 km/h (0 Bft) 0,00 %
03.10.2015 00:59 9,7 C 78 % 1017,9 hPa 0,0 l/m 0,0 km/h (0 Bft) O-NO 58 0 min 0,000 mm 0,0 UV-I 0 W/m 6,1 C 9,7 C 0,0 km/h (0 Bft) 0,00 %
03.10.2015 01:04 9,7 C 77 % 1017,6 hPa 0,0 l/m 0,0 km/h (0 Bft) O 85 0 min 0,000 mm 0,0 UV-I 0 W/m 5,9 C 9,7 C 0,0 km/h (0 Bft) 0,00 %
03.10.2015 01:09 9,7 C 77 % 1018,0 hPa 0,0 l/m 0,0 km/h (0 Bft) O-NO 63 0 min 0,000 mm 0,0 UV-I 0 W/m 5,9 C 9,7 C 0,0 km/h (0 Bft) 0,00 %
03.10.2015 01:14 9,7 C 78 % 1017,9 hPa 0,0 l/m 0,0 km/h (0 Bft) O 91 0 min 0,000 mm 0,0 UV-I 0 W/m 6,1 C 9,7 C 0,0 km/h (0 Bft) 0,00 %
03.10.2015 01:19 9,6 C 79 % 1017,8 hPa 0,0 l/m 0,0 km/h (0 Bft) O-NO 62 0 min 0,000 mm 0,0 UV-I 0 W/m 6,1 C 9,6 C 0,0 km/h (0 Bft) 0,00 %
03.10.2015 01:24 9,6 C 79 % 1017,7 hPa 0,0 l/m 0,0 km/h (0 Bft) O-NO 70 0 min 0,000 mm 0,0 UV-I 0 W/m 6,1 C 9,6 C 0,0 km/h (0 Bft) 0,00 %
03.10.2015 01:29 9,6 C 78 % 1017,7 hPa 0,0 l/m 0,0 km/h (0 Bft) O-NO 71 0 min 0,000 mm 0,0 UV-I 0 W/m 6,0 C 9,6 C 0,0 km/h (0 Bft) 0,00 %
03.10.2015 01:34 9,6 C 78 % 1017,8 hPa 0,0 l/m 0,0 km/h (0 Bft) O-NO 68 0 min 0,000 mm 0,0 UV-I 0 W/m 6,0 C 9,6 C 0,0 km/h (0 Bft) 0,00 %
03.10.2015 01:39 9,5 C 78 % 1017,8 hPa 0,0 l/m 0,0 km/h (0 Bft) O-NO 64 0 min 0,000 mm 0,0 UV-I 0 W/m 5,9 C 9,5 C 0,0 km/h (0 Bft) 0,00 %
03.10.2015 01:44 9,5 C 79 % 1017,9 hPa 0,0 l/m 0,0 km/h (0 Bft) O-NO 71 0 min 0,000 mm 0,0 UV-I 0 W/m 6,0 C 9,5 C 0,0 km/h (0 Bft) 0,00 %
03.10.2015 01:49 9,4 C 79 % 1017,7 hPa 0,0 l/m 0,0 km/h (0 Bft) NO 45 0 min 0,000 mm 0,0 UV-I 0 W/m 5,9 C 9,4 C 0,0 km/h (0 Bft) 0,00 %
03.10.2015 01:54 9,3 C 80 % 1017,9 hPa 0,0 l/m 0,0 km/h (0 Bft) O-NO 66 0 min 0,000 mm 0,0 UV-I 0 W/m 6,0 C 9,3 C 0,0 km/h (0 Bft) 0,00 %
03.10.2015 01:59 9,3 C 80 % 1017,7 hPa 0,0 l/m 0,0 km/h (0 Bft) O 85 0 min 0,000 mm 0,0 UV-I 0 W/m 6,0 C 9,3 C 0,0 km/h (0 Bft) 0,00 %
03.10.2015 02:04 9,2 C 80 % 1017,7 hPa 0,0 l/m 1,8 km/h (1 Bft) NO 55 0 min 0,000 mm 0,0 UV-I 0 W/m 5,9 C 9,2 C 4,0 km/h (1 Bft) 0,00 %
03.10.2015 02:09 9,2 C 80 % 1017,6 hPa 0,0 l/m 0,4 km/h (0 Bft) O-SO 103 0 min 0,000 mm 0,0 UV-I 0 W/m 5,9 C 9,2 C 4,0 km/h (1 Bft) 0,00 %
03.10.2015 02:14 9,2 C 80 % 1017,5 hPa 0,0 l/m 0,0 km/h (0 Bft) NO 55 0 min 0,000 mm 0,0 UV-I 0 W/m 5,9 C 9,2 C 0,0 km/h (0 Bft) 0,00 %
03.10.2015 02:19 9,1 C 80 % 1017,8 hPa 0,0 l/m 0,0 km/h (0 Bft) S 179 0 min 0,000 mm 0,0 UV-I 0 W/m 5,8 C 9,1 C 0,0 km/h (0 Bft) 0,00 %
03.10.2015 02:24 9,0 C 82 % 1017,6 hPa 0,0 l/m 0,0 km/h (0 Bft) S 179 0 min 0,000 mm 0,0 UV-I 0 W/m 6,1 C 9,0 C 0,0 km/h (0 Bft) 0,00 %
03.10.2015 02:29 8,8 C 82 % 1017,5 hPa 0,0 l/m 0,0 km/h (0 Bft) O-NO 61 0 min 0,000 mm 0,0 UV-I 0 W/m 5,9 C 8,8 C 0,0 km/h (0 Bft) 0,00 %
03.10.2015 02:34 8,6 C 82 % 1017,6 hPa 0,0 l/m 0,0 km/h (0 Bft) O-NO 70 0 min 0,000 mm 0,0 UV-I 0 W/m 5,7 C 8,6 C 0,0 km/h (0 Bft) 0,00 %
03.10.2015 02:39 8,3 C 83 % 1017,5 hPa 0,0 l/m 0,0 km/h (0 Bft) O 79 0 min 0,000 mm 0,0 UV-I 0 W/m 5,6 C 8,3 C 0,0 km/h (0 Bft) 0,00 %
03.10.2015 02:44 8,1 C 83 % 1017,6 hPa 0,0 l/m 0,0 km/h (0 Bft) O-NO 63 0 min 0,000 mm 0,0 UV-I 0 W/m 5,4 C 8,1 C 0,0 km/h (0 Bft) 0,00 %
03.10.2015 02:49 8,0 C 85 % 1017,6 hPa 0,0 l/m 0,0 km/h (0 Bft) O-NO 71 0 min 0,000 mm 0,0 UV-I 0 W/m 5,6 C 8,0 C 0,0 km/h (0 Bft) 0,00 %
03.10.2015 02:54 7,9 C 85 % 1017,6 hPa 0,0 l/m 0,0 km/h (0 Bft) O-NO 70 0 min 0,000 mm 0,0 UV-I 0 W/m 5,5 C 7,9 C 0,0 km/h (0 Bft) 0,00 %
03.10.2015 02:59 7,7 C 86 % 1017,4 hPa 0,0 l/m 0,0 km/h (0 Bft) O 81 0 min 0,000 mm 0,0 UV-I 0 W/m 5,5 C 7,7 C 0,0 km/h (0 Bft) 0,00 %
03.10.2015 03:04 7,5 C 86 % 1017,2 hPa 0,0 l/m 0,0 km/h (0 Bft) O-NO 66 0 min 0,000 mm 0,0 UV-I 0 W/m 5,3 C 7,5 C 0,0 km/h (0 Bft) 0,00 %
03.10.2015 03:09 7,4 C 86 % 1017,2 hPa 0,0 l/m 0,0 km/h (0 Bft) O 89 0 min 0,000 mm 0,0 UV-I 0 W/m 5,2 C 7,4 C 0,0 km/h (0 Bft) 0,00 %
03.10.2015 03:14 7,3 C 87 % 1017,2 hPa 0,0 l/m 0,0 km/h (0 Bft) O 93 0 min 0,000 mm 0,0 UV-I 0 W/m 5,3 C 7,3 C 0,0 km/h (0 Bft) 0,00 %
03.10.2015 03:19 7,2 C 87 % 1017,3 hPa 0,0 l/m 0,0 km/h (0 Bft) O-NO 64 0 min 0,000 mm 0,0 UV-I 0 W/m 5,2 C 7,2 C 0,0 km/h (0 Bft) 0,00 %
03.10.2015 03:24 7,0 C 88 % 1017,3 hPa 0,0 l/m 0,0 km/h (0 Bft) SO 131 0 min 0,000 mm 0,0 UV-I 0 W/m 5,2 C 7,0 C 0,0 km/h (0 Bft) 0,00 %
03.10.2015 03:29 6,8 C 89 % 1017,2 hPa 0,0 l/m 0,0 km/h (0 Bft) O 88 0 min 0,000 mm 0,0 UV-I 0 W/m 5,1 C 6,8 C 0,0 km/h (0 Bft) 0,00 %
03.10.2015 03:34 6,6 C 89 % 1017,0 hPa 0,0 l/m 0,0 km/h (0 Bft) O-NO 63 0 min 0,000 mm 0,0 UV-I 0 W/m 4,9 C 6,6 C 0,0 km/h (0 Bft) 0,00 %
03.10.2015 03:39 6,5 C 90 % 1017,0 hPa 0,0 l/m 0,0 km/h (0 Bft) O-NO 61 0 min 0,000 mm 0,0 UV-I 0 W/m 5,0 C 6,5 C 0,0 km/h (0 Bft) 0,00 %
03.10.2015 03:44 6,5 C 90 % 1017,0 hPa 0,0 l/m 0,0 km/h (0 Bft) O 99 0 min 0,000 mm 0,0 UV-I 0 W/m 5,0 C 6,5 C 0,0 km/h (0 Bft) 0,00 %
03.10.2015 03:49 6,4 C 90 % 1017,0 hPa 0,0 l/m 0,0 km/h (0 Bft) O 83 0 min 0,000 mm 0,0 UV-I 0 W/m 4,9 C 6,4 C 0,0 km/h (0 Bft) 0,00 %
03.10.2015 03:54 6,3 C 90 % 1017,3 hPa 0,0 l/m 0,0 km/h (0 Bft) O-NO 77 0 min 0,000 mm 0,0 UV-I 0 W/m 4,8 C 6,3 C 0,0 km/h (0 Bft) 0,00 %
03.10.2015 03:59 6,2 C 90 % 1017,0 hPa 0,0 l/m 0,0 km/h (0 Bft) O-SO 112 0 min 0,000 mm 0,0 UV-I 0 W/m 4,7 C 6,2 C 0,0 km/h (0 Bft) 0,00 %
03.10.2015 04:04 6,1 C 91 % 1016,9 hPa 0,0 l/m 0,0 km/h (0 Bft) O 82 0 min 0,000 mm 0,0 UV-I 0 W/m 4,7 C 6,1 C 0,0 km/h (0 Bft) 0,00 %
03.10.2015 04:09 6,1 C 91 % 1017,0 hPa 0,0 l/m 0,0 km/h (0 Bft) N-NO 19 0 min 0,000 mm 0,0 UV-I 0 W/m 4,7 C 6,1 C 0,0 km/h (0 Bft) 0,00 %
03.10.2015 04:14 6,0 C 92 % 1016,9 hPa 0,0 l/m 0,0 km/h (0 Bft) O 84 0 min 0,000 mm 0,0 UV-I 0 W/m 4,8 C 6,0 C 0,0 km/h (0 Bft) 0,00 %
03.10.2015 04:19 6,0 C 91 % 1016,9 hPa 0,0 l/m 0,0 km/h (0 Bft) O-SO 118 0 min 0,000 mm 0,0 UV-I 0 W/m 4,6 C 6,0 C 0,0 km/h (0 Bft) 0,00 %
03.10.2015 04:24 5,9 C 92 % 1016,8 hPa 0,0 l/m 0,0 km/h (0 Bft) O-NO 67 0 min 0,000 mm 0,0 UV-I 0 W/m 4,7 C 5,9 C 0,0 km/h (0 Bft) 0,00 %
03.10.2015 04:29 5,9 C 93 % 1016,7 hPa 0,0 l/m 0,0 km/h (0 Bft) O 89 0 min 0,000 mm 0,0 UV-I 0 W/m 4,9 C 5,9 C 0,0 km/h (0 Bft) 0,00 %
03.10.2015 04:34 5,9 C 93 % 1016,9 hPa 0,0 l/m 0,0 km/h (0 Bft) SO 139 0 min 0,000 mm 0,0 UV-I 0 W/m 4,9 C 5,9 C 0,0 km/h (0 Bft) 0,00 %
03.10.2015 04:39 5,9 C 93 % 1016,9 hPa 0,0 l/m 0,0 km/h (0 Bft) O-NO 74 0 min 0,000 mm 0,0 UV-I 0 W/m 4,9 C 5,9 C 0,0 km/h (0 Bft) 0,00 %
03.10.2015 04:44 5,9 C 93 % 1016,8 hPa 0,0 l/m 0,0 km/h (0 Bft) O-NO 72 0 min 0,000 mm 0,0 UV-I 0 W/m 4,9 C 5,9 C 0,0 km/h (0 Bft) 0,00 %
03.10.2015 04:49 5,9 C 92 % 1016,8 hPa 0,0 l/m 0,0 km/h (0 Bft) O-NO 68 0 min 0,000 mm 0,0 UV-I 0 W/m 4,7 C 5,9 C 0,0 km/h (0 Bft) 0,00 %
03.10.2015 04:54 5,9 C 93 % 1016,9 hPa 0,0 l/m 0,0 km/h (0 Bft) O-NO 68 0 min 0,000 mm 0,0 UV-I 0 W/m 4,9 C 5,9 C 0,0 km/h (0 Bft) 0,00 %
03.10.2015 04:59 5,9 C 93 % 1016,7 hPa 0,0 l/m 0,0 km/h (0 Bft) O-NO 61 0 min 0,000 mm 0,0 UV-I 0 W/m 4,9 C 5,9 C 0,0 km/h (0 Bft) 0,00 %
03.10.2015 05:04 5,8 C 93 % 1016,6 hPa 0,0 l/m 0,0 km/h (0 Bft) O-SO 103 0 min 0,000 mm 0,0 UV-I 0 W/m 4,8 C 5,8 C 0,0 km/h (0 Bft) 0,00 %
03.10.2015 05:09 5,7 C 93 % 1016,8 hPa 0,0 l/m 0,0 km/h (0 Bft) O-NO 74 0 min 0,000 mm 0,0 UV-I 0 W/m 4,7 C 5,7 C 0,0 km/h (0 Bft) 0,00 %
03.10.2015 05:14 5,7 C 94 % 1016,8 hPa 0,0 l/m 0,0 km/h (0 Bft) O-NO 61 0 min 0,000 mm 0,0 UV-I 0 W/m 4,8 C 5,7 C 0,0 km/h (0 Bft) 0,00 %
03.10.2015 05:19 5,7 C 94 % 1016,6 hPa 0,0 l/m 0,0 km/h (0 Bft) O-SO 115 0 min 0,000 mm 0,0 UV-I 0 W/m 4,8 C 5,7 C 0,0 km/h (0 Bft) 0,00 %
03.10.2015 05:24 5,7 C 94 % 1016,4 hPa 0,0 l/m 0,0 km/h (0 Bft) O-NO 59 0 min 0,000 mm 0,0 UV-I 0 W/m 4,8 C 5,7 C 0,0 km/h (0 Bft) 0,00 %
03.10.2015 05:29 5,7 C 94 % 1016,4 hPa 0,0 l/m 0,0 km/h (0 Bft) O-NO 67 0 min 0,000 mm 0,0 UV-I 0 W/m 4,8 C 5,7 C 0,0 km/h (0 Bft) 0,00 %
03.10.2015 05:34 5,7 C 94 % 1016,5 hPa 0,0 l/m 0,0 km/h (0 Bft) O 93 0 min 0,000 mm 0,0 UV-I 0 W/m 4,8 C 5,7 C 0,0 km/h (0 Bft) 0,00 %
03.10.2015 05:39 5,7 C 94 % 1016,4 hPa 0,0 l/m 0,0 km/h (0 Bft) O-NO 63 0 min 0,000 mm 0,0 UV-I 0 W/m 4,8 C 5,7 C 0,0 km/h (0 Bft) 0,00 %
03.10.2015 05:44 5,6 C 94 % 1016,2 hPa 0,0 l/m 0,0 km/h (0 Bft) O-NO 68 0 min 0,000 mm 0,0 UV-I 0 W/m 4,7 C 5,6 C 0,0 km/h (0 Bft) 0,00 %
03.10.2015 05:49 5,5 C 94 % 1016,5 hPa 0,0 l/m 0,0 km/h (0 Bft) O-SO 114 0 min 0,000 mm 0,0 UV-I 0 W/m 4,6 C 5,5 C 0,0 km/h (0 Bft) 0,00 %
03.10.2015 05:54 5,4 C 94 % 1016,4 hPa 0,0 l/m 0,0 km/h (0 Bft) O-NO 63 0 min 0,000 mm 0,0 UV-I 0 W/m 4,5 C 5,4 C 0,0 km/h (0 Bft) 0,00 %
03.10.2015 05:59 5,4 C 94 % 1016,4 hPa 0,0 l/m 0,0 km/h (0 Bft) O-NO 75 0 min 0,000 mm 0,0 UV-I 0 W/m 4,5 C 5,4 C 0,0 km/h (0 Bft) 0,00 %
03.10.2015 06:04 5,3 C 94 % 1016,4 hPa 0,0 l/m 0,0 km/h (0 Bft) O-SO 107 0 min 0,000 mm 0,0 UV-I 0 W/m 4,4 C 5,3 C 0,0 km/h (0 Bft) 0,00 %
03.10.2015 06:09 5,2 C 94 % 1016,4 hPa 0,0 l/m 0,0 km/h (0 Bft) O-NO 74 0 min 0,000 mm 0,0 UV-I 0 W/m 4,3 C 5,2 C 0,0 km/h (0 Bft) 0,00 %
03.10.2015 06:14 5,1 C 94 % 1016,4 hPa 0,0 l/m 0,0 km/h (0 Bft) O-NO 66 0 min 0,000 mm 0,0 UV-I 0 W/m 4,2 C 5,1 C 0,0 km/h (0 Bft) 0,00 %
03.10.2015 06:19 5,1 C 94 % 1016,4 hPa 0,0 l/m 0,0 km/h (0 Bft) O 90 0 min 0,000 mm 0,0 UV-I 0 W/m 4,2 C 5,1 C 0,0 km/h (0 Bft) 0,00 %
03.10.2015 06:24 5,1 C 95 % 1016,3 hPa 0,0 l/m 0,0 km/h (0 Bft) O 90 0 min 0,000 mm 0,0 UV-I 0 W/m 4,4 C 5,1 C 0,0 km/h (0 Bft) 0,00 %
03.10.2015 06:29 5,1 C 95 % 1016,3 hPa 0,0 l/m 0,0 km/h (0 Bft) O-NO 63 0 min 0,000 mm 0,0 UV-I 0 W/m 4,4 C 5,1 C 0,0 km/h (0 Bft) 0,00 %
03.10.2015 06:34 5,1 C 95 % 1016,4 hPa 0,0 l/m 0,0 km/h (0 Bft) O-NO 74 0 min 0,000 mm 0,0 UV-I 0 W/m 4,4 C 5,1 C 0,0 km/h (0 Bft) 0,00 %
03.10.2015 06:39 5,1 C 95 % 1016,4 hPa 0,0 l/m 0,0 km/h (0 Bft) O-NO 61 0 min 0,000 mm 0,0 UV-I 0 W/m 4,4 C 5,1 C 0,0 km/h (0 Bft) 0,00 %
03.10.2015 06:44 5,0 C 95 % 1016,4 hPa 0,0 l/m 0,0 km/h (0 Bft) SO 133 0 min 0,000 mm 0,0 UV-I 0 W/m 4,3 C 5,0 C 0,0 km/h (0 Bft) 0,00 %
03.10.2015 06:49 5,0 C 96 % 1016,3 hPa 0,0 l/m 0,0 km/h (0 Bft) O-SO 108 0 min 0,000 mm 0,0 UV-I 0 W/m 4,4 C 5,0 C 0,0 km/h (0 Bft) 0,00 %
03.10.2015 06:54 4,9 C 95 % 1016,3 hPa 0,0 l/m 0,0 km/h (0 Bft) O 81 0 min 0,000 mm 0,0 UV-I 0 W/m 4,2 C 4,9 C 0,0 km/h (0 Bft) 0,00 %
03.10.2015 06:59 4,9 C 96 % 1016,5 hPa 0,0 l/m 0,0 km/h (0 Bft) O-SO 117 0 min 0,000 mm 0,0 UV-I 0 W/m 4,3 C 4,9 C 0,0 km/h (0 Bft) 0,00 %
03.10.2015 07:04 5,0 C 96 % 1016,5 hPa 0,0 l/m 0,0 km/h (0 Bft) O 87 0 min 0,000 mm 0,0 UV-I 0 W/m 4,4 C 5,0 C 0,0 km/h (0 Bft) 0,00 %
03.10.2015 07:09 5,0 C 96 % 1016,5 hPa 0,0 l/m 0,0 km/h (0 Bft) O 83 0 min 0,000 mm 0,0 UV-I 0 W/m 4,4 C 5,0 C 0,0 km/h (0 Bft) 0,00 %
03.10.2015 07:14 5,0 C 96 % 1016,5 hPa 0,0 l/m 0,0 km/h (0 Bft) O-NO 68 0 min 0,000 mm 0,0 UV-I 3 W/m 4,4 C 5,0 C 0,0 km/h (0 Bft) 0,00 %
03.10.2015 07:19 5,0 C 96 % 1016,4 hPa 0,0 l/m 0,0 km/h (0 Bft) O 90 0 min 0,000 mm 0,0 UV-I 8 W/m 4,4 C 5,0 C 0,0 km/h (0 Bft) 0,00 %
03.10.2015 07:24 5,0 C 96 % 1016,3 hPa 0,0 l/m 0,0 km/h (0 Bft) O-NO 66 0 min 0,000 mm 0,0 UV-I 20 W/m 4,4 C 5,0 C 0,0 km/h (0 Bft) 0,00 %
03.10.2015 07:29 5,0 C 96 % 1016,3 hPa 0,0 l/m 0,0 km/h (0 Bft) O 80 0 min 0,000 mm 0,0 UV-I 27 W/m 4,4 C 5,0 C 0,0 km/h (0 Bft) 0,00 %
03.10.2015 07:34 5,0 C 97 % 1016,5 hPa 0,0 l/m 0,0 km/h (0 Bft) O 79 0 min 0,000 mm 0,0 UV-I 38 W/m 4,6 C 5,0 C 0,0 km/h (0 Bft) 0,00 %
03.10.2015 07:39 4,9 C 96 % 1016,5 hPa 0,0 l/m 0,0 km/h (0 Bft) O 96 5 min 0,000 mm 0,0 UV-I 52 W/m 4,3 C 4,9 C 0,0 km/h (0 Bft) 0,00 %
03.10.2015 07:44 5,1 C 96 % 1016,3 hPa 0,0 l/m 0,0 km/h (0 Bft) O-NO 69 5 min 0,000 mm 0,0 UV-I 59 W/m 4,5 C 5,1 C 0,0 km/h (0 Bft) 0,00 %
03.10.2015 07:49 5,5 C 96 % 1016,3 hPa 0,0 l/m 0,0 km/h (0 Bft) O-NO 65 5 min 0,000 mm 0,0 UV-I 62 W/m 4,9 C 5,5 C 0,0 km/h (0 Bft) 0,00 %
03.10.2015 07:54 6,0 C 96 % 1016,4 hPa 0,0 l/m 0,0 km/h (0 Bft) O-NO 65 0 min 0,000 mm 0,0 UV-I 62 W/m 5,4 C 6,0 C 0,0 km/h (0 Bft) 0,00 %
03.10.2015 07:59 6,6 C 95 % 1016,5 hPa 0,0 l/m 0,0 km/h (0 Bft) O-NO 68 0 min 0,000 mm 0,0 UV-I 61 W/m 5,9 C 6,6 C 0,0 km/h (0 Bft) 0,00 %
03.10.2015 08:04 7,1 C 95 % 1016,6 hPa 0,0 l/m 0,0 km/h (0 Bft) O-NO 74 0 min 0,000 mm 0,0 UV-I 64 W/m 6,4 C 7,1 C 0,0 km/h (0 Bft) 0,00 %
03.10.2015 08:09 7,5 C 94 % 1016,8 hPa 0,0 l/m 0,0 km/h (0 Bft) O-SO 122 0 min 0,000 mm 0,0 UV-I 71 W/m 6,6 C 7,5 C 0,0 km/h (0 Bft) 0,00 %
03.10.2015 08:14 7,6 C 92 % 1016,6 hPa 0,0 l/m 0,0 km/h (0 Bft) S 171 0 min 0,000 mm 0,0 UV-I 71 W/m 6,4 C 7,6 C 0,0 km/h (0 Bft) 0,00 %
03.10.2015 08:19 7,6 C 91 % 1016,6 hPa 0,0 l/m 0,0 km/h (0 Bft) O-NO 60 0 min 0,000 mm 0,0 UV-I 73 W/m 6,2 C 7,6 C 0,0 km/h (0 Bft) 0,00 %
03.10.2015 08:24 7,7 C 90 % 1016,5 hPa 0,0 l/m 0,0 km/h (0 Bft) O-NO 60 0 min 0,000 mm 0,0 UV-I 72 W/m 6,2 C 7,7 C 0,0 km/h (0 Bft) 0,00 %
03.10.2015 08:29 7,8 C 88 % 1016,5 hPa 0,0 l/m 0,0 km/h (0 Bft) NO 54 0 min 0,000 mm 0,0 UV-I 77 W/m 5,9 C 7,8 C 0,0 km/h (0 Bft) 0,00 %
03.10.2015 08:34 8,0 C 87 % 1016,8 hPa 0,0 l/m 0,0 km/h (0 Bft) O-NO 73 0 min 0,000 mm 0,0 UV-I 75 W/m 6,0 C 8,0 C 0,0 km/h (0 Bft) 0,00 %
03.10.2015 08:39 8,1 C 86 % 1016,2 hPa 0,0 l/m 0,0 km/h (0 Bft) O-SO 104 0 min 0,000 mm 1,0 UV-I 89 W/m 5,9 C 8,1 C 0,0 km/h (0 Bft) 0,00 %
03.10.2015 08:44 8,3 C 85 % 1016,9 hPa 0,0 l/m 0,0 km/h (0 Bft) O 82 0 min 0,000 mm 1,0 UV-I 88 W/m 5,9 C 8,3 C 0,0 km/h (0 Bft) 0,00 %
03.10.2015 08:49 8,5 C 84 % 1016,9 hPa 0,0 l/m 0,0 km/h (0 Bft) NO 52 0 min 0,000 mm 1,0 UV-I 95 W/m 6,0 C 8,5 C 0,0 km/h (0 Bft) 0,00 %
03.10.2015 08:54 8,5 C 84 % 1016,7 hPa 0,0 l/m 0,0 km/h (0 Bft) O-NO 72 0 min 0,000 mm 1,0 UV-I 111 W/m 6,0 C 8,5 C 0,0 km/h (0 Bft) 0,00 %
03.10.2015 08:59 8,7 C 82 % 1016,6 hPa 0,0 l/m 0,0 km/h (0 Bft) O-NO 76 0 min 0,000 mm 1,0 UV-I 138 W/m 5,8 C 8,7 C 0,0 km/h (0 Bft) 0,00 %
03.10.2015 09:04 9,0 C 82 % 1016,7 hPa 0,0 l/m 0,0 km/h (0 Bft) O-NO 66 0 min 0,000 mm 1,0 UV-I 159 W/m 6,1 C 9,0 C 0,0 km/h (0 Bft) 0,00 %
03.10.2015 09:09 9,5 C 80 % 1016,7 hPa 0,0 l/m 0,0 km/h (0 Bft) O-NO 64 0 min 0,000 mm 1,0 UV-I 163 W/m 6,2 C 9,5 C 0,0 km/h (0 Bft) 0,00 %
03.10.2015 09:14 10,1 C 79 % 1016,8 hPa 0,0 l/m 0,0 km/h (0 Bft) O-NO 61 0 min 0,000 mm 1,0 UV-I 169 W/m 6,6 C 10,1 C 0,0 km/h (0 Bft) 0,00 %
03.10.2015 09:19 10,5 C 79 % 1016,6 hPa 0,0 l/m 0,0 km/h (0 Bft) O-NO 57 0 min 0,000 mm 1,0 UV-I 169 W/m 7,0 C 10,5 C 0,0 km/h (0 Bft) 0,00 %
03.10.2015 09:24 10,7 C 77 % 1016,4 hPa 0,0 l/m 0,0 km/h (0 Bft) O-NO 61 0 min 0,000 mm 1,0 UV-I 196 W/m 6,8 C 10,7 C 0,0 km/h (0 Bft) 0,00 %
03.10.2015 09:29 11,0 C 75 % 1016,6 hPa 0,0 l/m 0,0 km/h (0 Bft) O-NO 70 0 min 0,000 mm 1,0 UV-I 182 W/m 6,7 C 11,0 C 0,0 km/h (0 Bft) 0,00 %
03.10.2015 09:34 11,5 C 73 % 1016,4 hPa 0,0 l/m 0,0 km/h (0 Bft) O 97 0 min 0,000 mm 1,0 UV-I 183 W/m 6,8 C 11,5 C 0,0 km/h (0 Bft) 0,00 %
03.10.2015 09:39 12,0 C 72 % 1016,6 hPa 0,0 l/m 0,7 km/h (0 Bft) O 97 0 min 0,000 mm 1,0 UV-I 168 W/m 7,1 C 12,0 C 4,0 km/h (1 Bft) 0,00 %
03.10.2015 09:44 12,3 C 70 % 1016,6 hPa 0,0 l/m 0,0 km/h (0 Bft) NO 48 0 min 0,000 mm 1,0 UV-I 150 W/m 7,0 C 12,3 C 0,0 km/h (0 Bft) 0,00 %
03.10.2015 09:49 12,1 C 72 % 1016,6 hPa 0,0 l/m 4,0 km/h (1 Bft) O 94 0 min 0,000 mm 1,0 UV-I 155 W/m 7,2 C 12,1 C 4,0 km/h (1 Bft) 0,00 %
03.10.2015 09:54 11,9 C 71 % 1016,6 hPa 0,0 l/m 1,4 km/h (1 Bft) O-SO 116 0 min 0,000 mm 1,0 UV-I 171 W/m 6,8 C 11,9 C 7,9 km/h (2 Bft) 0,00 %
03.10.2015 09:59 12,0 C 69 % 1016,5 hPa 0,0 l/m 0,7 km/h (0 Bft) O-NO 77 0 min 0,000 mm 1,0 UV-I 196 W/m 6,5 C 12,0 C 4,0 km/h (1 Bft) 0,00 %
03.10.2015 10:04 12,1 C 70 % 1016,4 hPa 0,0 l/m 1,4 km/h (1 Bft) O-NO 74 0 min 0,000 mm 1,0 UV-I 225 W/m 6,8 C 12,1 C 4,0 km/h (1 Bft) 0,00 %
03.10.2015 10:09 12,3 C 68 % 1016,4 hPa 0,0 l/m 4,0 km/h (1 Bft) S-SO 160 5 min 0,000 mm 1,0 UV-I 251 W/m 6,6 C 12,3 C 7,9 km/h (2 Bft) 0,00 %
03.10.2015 10:14 12,7 C 66 % 1016,8 hPa 0,0 l/m 0,0 km/h (0 Bft) O 80 0 min 0,000 mm 1,0 UV-I 242 W/m 6,5 C 12,7 C 0,0 km/h (0 Bft) 0,00 %
03.10.2015 10:19 13,4 C 66 % 1016,5 hPa 0,0 l/m 6,5 km/h (2 Bft) O-SO 113 0 min 0,000 mm 1,0 UV-I 242 W/m 7,2 C 13,4 C 7,9 km/h (2 Bft) 0,00 %
03.10.2015 10:24 13,2 C 68 % 1016,3 hPa 0,0 l/m 0,0 km/h (0 Bft) O 87 0 min 0,000 mm 1,0 UV-I 262 W/m 7,4 C 13,2 C 0,0 km/h (0 Bft) 0,00 %
03.10.2015 10:29 13,1 C 65 % 1016,4 hPa 0,0 l/m 7,2 km/h (2 Bft) O-SO 113 0 min 0,000 mm 1,0 UV-I 264 W/m 6,7 C 12,6 C 7,9 km/h (2 Bft) 0,00 %
03.10.2015 10:34 13,4 C 65 % 1016,4 hPa 0,0 l/m 4,3 km/h (1 Bft) O-NO 63 5 min 0,000 mm 1,0 UV-I 284 W/m 7,0 C 13,4 C 7,9 km/h (2 Bft) 0,00 %
03.10.2015 10:39 13,7 C 63 % 1016,4 hPa 0,0 l/m 0,0 km/h (0 Bft) O-NO 69 0 min 0,000 mm 1,0 UV-I 275 W/m 6,8 C 13,7 C 0,0 km/h (0 Bft) 0,00 %
03.10.2015 10:44 14,0 C 63 % 1016,3 hPa 0,0 l/m 0,7 km/h (0 Bft) O-SO 106 5 min 0,000 mm 2,0 UV-I 292 W/m 7,1 C 14,0 C 4,0 km/h (1 Bft) 0,00 %
03.10.2015 10:49 14,3 C 62 % 1016,3 hPa 0,0 l/m 6,8 km/h (2 Bft) O-SO 107 5 min 0,000 mm 2,0 UV-I 331 W/m 7,1 C 14,1 C 7,9 km/h (2 Bft) 0,00 %
03.10.2015 10:54 14,6 C 60 % 1016,3 hPa 0,0 l/m 0,0 km/h (0 Bft) O-NO 63 5 min 0,000 mm 2,0 UV-I 334 W/m 6,9 C 14,6 C 0,0 km/h (0 Bft) 0,00 %
03.10.2015 10:59 15,1 C 59 % 1016,4 hPa 0,0 l/m 3,2 km/h (1 Bft) O 95 5 min 0,000 mm 2,0 UV-I 334 W/m 7,1 C 15,1 C 4,0 km/h (1 Bft) 0,00 %
03.10.2015 11:04 15,6 C 57 % 1016,5 hPa 0,0 l/m 0,0 km/h (0 Bft) NO 54 5 min 0,000 mm 2,0 UV-I 353 W/m 7,1 C 15,6 C 0,0 km/h (0 Bft) 0,00 %
03.10.2015 11:09 15,8 C 59 % 1016,1 hPa 0,0 l/m 0,4 km/h (0 Bft) O-NO 67 5 min 0,000 mm 2,0 UV-I 363 W/m 7,8 C 15,8 C 4,0 km/h (1 Bft) 0,00 %
03.10.2015 11:14 15,5 C 60 % 1016,2 hPa 0,0 l/m 0,0 km/h (0 Bft) O-SO 116 5 min 0,000 mm 2,0 UV-I 372 W/m 7,8 C 15,5 C 0,0 km/h (0 Bft) 0,00 %
03.10.2015 11:19 15,3 C 59 % 1016,0 hPa 0,0 l/m 5,4 km/h (1 Bft) O-SO 108 5 min 0,000 mm 2,0 UV-I 379 W/m 7,3 C 15,3 C 7,9 km/h (2 Bft) 0,00 %
03.10.2015 11:24 15,6 C 57 % 1016,1 hPa 0,0 l/m 4,7 km/h (1 Bft) O-SO 119 5 min 0,000 mm 2,0 UV-I 396 W/m 7,1 C 15,6 C 7,9 km/h (2 Bft) 0,00 %
03.10.2015 11:29 16,0 C 56 % 1016,1 hPa 0,0 l/m 0,4 km/h (0 Bft) O-NO 60 5 min 0,000 mm 2,0 UV-I 403 W/m 7,2 C 16,0 C 4,0 km/h (1 Bft) 0,00 %
03.10.2015 11:34 16,3 C 57 % 1016,2 hPa 0,0 l/m 0,0 km/h (0 Bft) O 86 5 min 0,000 mm 2,0 UV-I 370 W/m 7,8 C 16,3 C 0,0 km/h (0 Bft) 0,00 %
03.10.2015 11:39 16,4 C 56 % 1015,9 hPa 0,0 l/m 1,8 km/h (1 Bft) NO 56 5 min 0,000 mm 2,0 UV-I 428 W/m 7,6 C 16,4 C 4,0 km/h (1 Bft) 0,00 %
03.10.2015 11:44 16,3 C 58 % 1016,0 hPa 0,0 l/m 0,0 km/h (0 Bft) O-NO 59 5 min 0,000 mm 2,0 UV-I 480 W/m 8,0 C 16,3 C 0,0 km/h (0 Bft) 0,00 %
03.10.2015 11:49 16,3 C 58 % 1015,9 hPa 0,0 l/m 0,4 km/h (0 Bft) O-NO 69 0 min 0,000 mm 2,0 UV-I 318 W/m 8,0 C 16,3 C 4,0 km/h (1 Bft) 0,00 %
03.10.2015 11:54 16,2 C 57 % 1015,9 hPa 0,0 l/m 1,4 km/h (1 Bft) O 95 0 min 0,000 mm 1,0 UV-I 289 W/m 7,7 C 16,2 C 4,0 km/h (1 Bft) 0,00 %
03.10.2015 11:59 16,4 C 57 % 1015,9 hPa 0,0 l/m 0,4 km/h (0 Bft) O 82 0 min 0,000 mm 1,0 UV-I 259 W/m 7,9 C 16,4 C 4,0 km/h (1 Bft) 0,00 %
03.10.2015 12:04 16,4 C 58 % 1016,0 hPa 0,0 l/m 0,0 km/h (0 Bft) O-NO 71 0 min 0,000 mm 1,0 UV-I 251 W/m 8,1 C 16,4 C 0,0 km/h (0 Bft) 0,00 %
03.10.2015 12:09 16,4 C 58 % 1016,2 hPa 0,0 l/m 0,0 km/h (0 Bft) O 85 0 min 0,000 mm 1,0 UV-I 246 W/m 8,1 C 16,4 C 0,0 km/h (0 Bft) 0,00 %
03.10.2015 12:14 16,1 C 59 % 1016,2 hPa 0,0 l/m 1,8 km/h (1 Bft) O 83 0 min 0,000 mm 1,0 UV-I 245 W/m 8,1 C 16,1 C 4,0 km/h (1 Bft) 0,00 %
03.10.2015 12:19 15,9 C 58 % 1015,9 hPa 0,0 l/m 0,0 km/h (0 Bft) O-NO 63 0 min 0,000 mm 1,0 UV-I 260 W/m 7,6 C 15,9 C 0,0 km/h (0 Bft) 0,00 %
03.10.2015 12:24 15,9 C 60 % 1016,0 hPa 0,0 l/m 0,7 km/h (0 Bft) O-NO 67 0 min 0,000 mm 1,0 UV-I 281 W/m 8,1 C 15,9 C 4,0 km/h (1 Bft) 0,00 %
03.10.2015 12:29 15,9 C 59 % 1015,8 hPa 0,0 l/m 0,0 km/h (0 Bft) O 86 0 min 0,000 mm 1,0 UV-I 326 W/m 7,9 C 15,9 C 0,0 km/h (0 Bft) 0,00 %
03.10.2015 12:34 16,0 C 58 % 1015,7 hPa 0,0 l/m 0,0 km/h (0 Bft) NO 37 0 min 0,000 mm 2,0 UV-I 326 W/m 7,7 C 16,0 C 0,0 km/h (0 Bft) 0,00 %
03.10.2015 12:40 16,2 C 59 % 1015,7 hPa 0,0 l/m 0,0 km/h (0 Bft) O-NO 60 0 min 0,000 mm 2,0 UV-I 338 W/m 8,2 C 16,2 C 0,0 km/h (0 Bft) 0,00 %
03.10.2015 12:45 16,4 C 59 % 1015,7 hPa 0,0 l/m 0,4 km/h (0 Bft) O 83 0 min 0,000 mm 2,0 UV-I 332 W/m 8,4 C 16,4 C 4,0 km/h (1 Bft) 0,00 %
03.10.2015 12:50 16,6 C 57 % 1015,5 hPa 0,0 l/m 2,2 km/h (1 Bft) O 92 5 min 0,000 mm 2,0 UV-I 501 W/m 8,0 C 16,6 C 4,0 km/h (1 Bft) 0,00 %
03.10.2015 12:55 17,0 C 57 % 1015,4 hPa 0,0 l/m 0,7 km/h (0 Bft) O-SO 119 5 min 0,000 mm 2,0 UV-I 490 W/m 8,4 C 17,0 C 4,0 km/h (1 Bft) 0,00 %
03.10.2015 13:00 17,4 C 55 % 1015,5 hPa 0,0 l/m 0,0 km/h (0 Bft) NO 56 5 min 0,000 mm 2,0 UV-I 607 W/m 8,3 C 17,4 C 0,0 km/h (0 Bft) 0,00 %
03.10.2015 13:05 17,7 C 53 % 1015,2 hPa 0,0 l/m 0,0 km/h (0 Bft) O-NO 78 5 min 0,000 mm 2,0 UV-I 703 W/m 8,0 C 17,7 C 0,0 km/h (0 Bft) 0,00 %
03.10.2015 13:10 18,1 C 51 % 1015,1 hPa 0,0 l/m 2,9 km/h (1 Bft) O-NO 70 5 min 0,000 mm 2,0 UV-I 720 W/m 7,8 C 18,1 C 4,0 km/h (1 Bft) 0,00 %
03.10.2015 13:15 18,2 C 52 % 1015,2 hPa 0,0 l/m 0,0 km/h (0 Bft) O 90 5 min 0,000 mm 2,0 UV-I 498 W/m 8,2 C 18,2 C 0,0 km/h (0 Bft) 0,00 %
03.10.2015 13:20 18,2 C 52 % 1015,0 hPa 0,0 l/m 0,0 km/h (0 Bft) O 95 5 min 0,000 mm 2,0 UV-I 729 W/m 8,2 C 18,2 C 0,0 km/h (0 Bft) 0,00 %
03.10.2015 13:25 18,5 C 52 % 1015,0 hPa 0,0 l/m 0,0 km/h (0 Bft) O 81 5 min 0,000 mm 2,0 UV-I 384 W/m 8,5 C 18,5 C 0,0 km/h (0 Bft) 0,00 %
03.10.2015 13:30 18,9 C 50 % 1015,0 hPa 0,0 l/m 0,0 km/h (0 Bft) O-NO 58 5 min 0,000 mm 2,0 UV-I 647 W/m 8,2 C 18,9 C 0,0 km/h (0 Bft) 0,00 %
03.10.2015 13:35 19,2 C 49 % 1014,9 hPa 0,0 l/m 0,0 km/h (0 Bft) O-NO 62 5 min 0,000 mm 2,0 UV-I 636 W/m 8,2 C 19,2 C 0,0 km/h (0 Bft) 0,00 %
03.10.2015 13:40 19,6 C 50 % 1014,9 hPa 0,0 l/m 0,0 km/h (0 Bft) O-NO 76 5 min 0,000 mm 1,0 UV-I 634 W/m 8,9 C 19,6 C 0,0 km/h (0 Bft) 0,00 %
03.10.2015 13:45 19,3 C 53 % 1015,0 hPa 0,0 l/m 0,0 km/h (0 Bft) N-NO 19 5 min 0,000 mm 1,0 UV-I 617 W/m 9,5 C 19,3 C 0,0 km/h (0 Bft) 0,00 %
03.10.2015 13:50 18,7 C 53 % 1015,0 hPa 0,0 l/m 0,0 km/h (0 Bft) N-NO 25 5 min 0,000 mm 1,0 UV-I 644 W/m 8,9 C 18,7 C 0,0 km/h (0 Bft) 0,00 %
03.10.2015 13:55 18,5 C 53 % 1014,9 hPa 0,0 l/m 0,0 km/h (0 Bft) N 5 5 min 0,000 mm 1,0 UV-I 649 W/m 8,7 C 18,5 C 0,0 km/h (0 Bft) 0,00 %
03.10.2015 14:00 18,6 C 51 % 1014,7 hPa 0,0 l/m 0,0 km/h (0 Bft) SO 125 5 min 0,000 mm 1,0 UV-I 703 W/m 8,3 C 18,6 C 0,0 km/h (0 Bft) 0,00 %
03.10.2015 14:05 19,2 C 51 % 1014,6 hPa 0,0 l/m 0,4 km/h (0 Bft) O 89 5 min 0,000 mm 1,0 UV-I 778 W/m 8,8 C 19,2 C 4,0 km/h (1 Bft) 0,00 %
03.10.2015 14:10 19,7 C 48 % 1014,9 hPa 0,0 l/m 0,0 km/h (0 Bft) O 101 5 min 0,000 mm 1,0 UV-I 448 W/m 8,4 C 19,7 C 0,0 km/h (0 Bft) 0,00 %
03.10.2015 14:15 20,0 C 48 % 1015,1 hPa 0,0 l/m 0,0 km/h (0 Bft) NO 51 0 min 0,000 mm 1,0 UV-I 305 W/m 8,7 C 20,0 C 0,0 km/h (0 Bft) 0,00 %
03.10.2015 14:20 19,9 C 51 % 1015,0 hPa 0,0 l/m 0,4 km/h (0 Bft) NO 55 5 min 0,000 mm 1,0 UV-I 323 W/m 9,5 C 19,9 C 4,0 km/h (1 Bft) 0,00 %
03.10.2015 14:25 19,2 C 54 % 1014,8 hPa 0,0 l/m 0,0 km/h (0 Bft) O-NO 70 5 min 0,000 mm 1,0 UV-I 360 W/m 9,7 C 19,2 C 0,0 km/h (0 Bft) 0,00 %
03.10.2015 14:30 18,8 C 53 % 1014,4 hPa 0,0 l/m 0,0 km/h (0 Bft) NO 51 5 min 0,000 mm 2,0 UV-I 537 W/m 9,0 C 18,8 C 0,0 km/h (0 Bft) 0,00 %
03.10.2015 14:35 19,0 C 52 % 1014,5 hPa 0,0 l/m 0,0 km/h (0 Bft) N-NO 16 5 min 0,000 mm 2,0 UV-I 426 W/m 8,9 C 19,0 C 0,0 km/h (0 Bft) 0,00 %
03.10.2015 14:40 19,1 C 52 % 1014,3 hPa 0,0 l/m 0,0 km/h (0 Bft) NO 46 5 min 0,000 mm 2,0 UV-I 434 W/m 9,0 C 19,1 C 0,0 km/h (0 Bft) 0,00 %
03.10.2015 14:45 19,2 C 52 % 1014,4 hPa 0,0 l/m 0,0 km/h (0 Bft) O-NO 59 5 min 0,000 mm 2,0 UV-I 618 W/m 9,1 C 19,2 C 0,0 km/h (0 Bft) 0,00 %
03.10.2015 14:50 19,2 C 52 % 1014,4 hPa 0,0 l/m 0,0 km/h (0 Bft) O-NO 59 5 min 0,000 mm 2,0 UV-I 618 W/m 9,1 C 19,2 C 0,0 km/h (0 Bft) 0,00 %
03.10.2015 14:55 20,8 C 48 % 1014,2 hPa 0,0 l/m 0,0 km/h (0 Bft) NO 49 5 min 0,000 mm 1,0 UV-I 624 W/m 9,4 C 20,8 C 0,0 km/h (0 Bft) 0,00 %
03.10.2015 15:00 19,6 C 51 % 1014,5 hPa 0,0 l/m 0,0 km/h (0 Bft) NO 43 5 min 0,000 mm 1,0 UV-I 442 W/m 9,2 C 19,6 C 0,0 km/h (0 Bft) 0,00 %
03.10.2015 15:05 19,6 C 51 % 1014,7 hPa 0,0 l/m 0,0 km/h (0 Bft) NO 56 5 min 0,000 mm 1,0 UV-I 466 W/m 9,2 C 19,6 C 0,0 km/h (0 Bft) 0,00 %
03.10.2015 15:10 20,4 C 49 % 1014,6 hPa 0,0 l/m 0,0 km/h (0 Bft) O-NO 62 0 min 0,000 mm 1,0 UV-I 264 W/m 9,3 C 20,4 C 0,0 km/h (0 Bft) 0,00 %
03.10.2015 15:15 20,4 C 49 % 1014,8 hPa 0,0 l/m 0,0 km/h (0 Bft) O-NO 62 0 min 0,000 mm 1,0 UV-I 264 W/m 9,3 C 20,4 C 0,0 km/h (0 Bft) 0,00 %
03.10.2015 15:20 20,4 C 49 % 1014,6 hPa 0,0 l/m 0,0 km/h (0 Bft) O-NO 62 0 min 0,000 mm 1,0 UV-I 264 W/m 9,3 C 20,4 C 0,0 km/h (0 Bft) 0,00 %
03.10.2015 15:25 20,4 C 49 % 1014,5 hPa 0,0 l/m 0,0 km/h (0 Bft) O-NO 62 5 min 0,000 mm 1,0 UV-I 264 W/m 9,3 C 20,4 C 0,0 km/h (0 Bft) 0,00 %
03.10.2015 15:30 20,4 C 49 % 1014,9 hPa 0,0 l/m 0,0 km/h (0 Bft) O-NO 62 5 min 0,000 mm 1,0 UV-I 264 W/m 9,3 C 20,4 C 0,0 km/h (0 Bft) 0,00 %
03.10.2015 15:35 20,4 C 49 % 1014,8 hPa 0,0 l/m 0,0 km/h (0 Bft) O-NO 62 5 min 0,000 mm 1,0 UV-I 264 W/m 9,3 C 20,4 C 0,0 km/h (0 Bft) 0,00 %
03.10.2015 15:40 20,4 C 49 % 1014,9 hPa 0,0 l/m 0,0 km/h (0 Bft) O-NO 62 5 min 0,000 mm 1,0 UV-I 264 W/m 9,3 C 20,4 C 0,0 km/h (0 Bft) 0,00 %
03.10.2015 15:45 20,4 C 49 % 1014,7 hPa 0,0 l/m 0,0 km/h (0 Bft) O-NO 62 5 min 0,000 mm 1,0 UV-I 264 W/m 9,3 C 20,4 C 0,0 km/h (0 Bft) 0,00 %
03.10.2015 15:50 20,4 C 49 % 1014,7 hPa 0,0 l/m 0,0 km/h (0 Bft) O-NO 62 5 min 0,000 mm 1,0 UV-I 264 W/m 9,3 C 20,4 C 0,0 km/h (0 Bft) 0,00 %
03.10.2015 15:55 20,4 C 49 % 1014,6 hPa 0,0 l/m 0,0 km/h (0 Bft) O-NO 62 5 min 0,000 mm 1,0 UV-I 264 W/m 9,3 C 20,4 C 0,0 km/h (0 Bft) 0,00 %
03.10.2015 16:00 20,4 C 49 % 1014,8 hPa 0,0 l/m 0,0 km/h (0 Bft) O-NO 62 5 min 0,000 mm 1,0 UV-I 264 W/m 9,3 C 20,4 C 0,0 km/h (0 Bft) 0,00 %
03.10.2015 16:05 20,4 C 49 % 1014,9 hPa 0,0 l/m 0,0 km/h (0 Bft) O-NO 62 5 min 0,000 mm 1,0 UV-I 264 W/m 9,3 C 20,4 C 0,0 km/h (0 Bft) 0,00 %
03.10.2015 16:10 20,4 C 49 % 1014,7 hPa 0,0 l/m 0,0 km/h (0 Bft) O-NO 62 5 min 0,000 mm 1,0 UV-I 264 W/m 9,3 C 20,4 C 0,0 km/h (0 Bft) 0,00 %
03.10.2015 16:15 20,4 C 49 % 1014,6 hPa 0,0 l/m 0,0 km/h (0 Bft) O-NO 62 5 min 0,000 mm 1,0 UV-I 264 W/m 9,3 C 20,4 C 0,0 km/h (0 Bft) 0,00 %
03.10.2015 16:20 20,4 C 49 % 1014,7 hPa 0,0 l/m 0,0 km/h (0 Bft) O-NO 62 5 min 0,000 mm 1,0 UV-I 264 W/m 9,3 C 20,4 C 0,0 km/h (0 Bft) 0,00 %
03.10.2015 16:25 21,2 C 49 % 1014,3 hPa 0,0 l/m 0,0 km/h (0 Bft) O 83 5 min 0,000 mm 1,0 UV-I 270 W/m 10,1 C 21,2 C 15,8 km/h (3 Bft) 0,00 %
03.10.2015 16:30 21,2 C 49 % 1014,4 hPa 0,0 l/m 0,0 km/h (0 Bft) O 83 5 min 0,000 mm 1,0 UV-I 270 W/m 10,1 C 21,2 C 15,8 km/h (3 Bft) 0,00 %
03.10.2015 16:36 21,6 C 47 % 1014,5 hPa 0,0 l/m 0,0 km/h (0 Bft) O-NO 70 6 min 0,000 mm 1,0 UV-I 276 W/m 9,8 C 21,6 C 0,0 km/h (0 Bft) 0,00 %
03.10.2015 16:41 21,6 C 46 % 1014,3 hPa 0,0 l/m 0,0 km/h (0 Bft) S-SW 202 5 min 0,000 mm 1,0 UV-I 272 W/m 9,5 C 21,6 C 0,0 km/h (0 Bft) 0,00 %
03.10.2015 16:46 21,6 C 45 % 1014,5 hPa 0,0 l/m 0,0 km/h (0 Bft) O 89 5 min 0,000 mm 1,0 UV-I 307 W/m 9,2 C 21,6 C 0,0 km/h (0 Bft) 0,00 %
03.10.2015 16:51 21,6 C 47 % 1014,2 hPa 0,0 l/m 0,0 km/h (0 Bft) O 100 5 min 0,000 mm 1,0 UV-I 538 W/m 9,8 C 21,6 C 0,0 km/h (0 Bft) 0,00 %
03.10.2015 16:56 21,7 C 46 % 1014,1 hPa 0,0 l/m 0,0 km/h (0 Bft) S-SO 151 5 min 0,000 mm 1,0 UV-I 679 W/m 9,6 C 21,7 C 0,0 km/h (0 Bft) 0,00 %
03.10.2015 17:01 21,7 C 45 % 1014,0 hPa 0,0 l/m 0,0 km/h (0 Bft) O 92 5 min 0,000 mm 1,0 UV-I 616 W/m 9,2 C 21,7 C 0,0 km/h (0 Bft) 0,00 %
03.10.2015 17:06 22,4 C 44 % 1014,1 hPa 0,0 l/m 0,0 km/h (0 Bft) S 181 5 min 0,000 mm 1,0 UV-I 653 W/m 9,5 C 22,4 C 0,0 km/h (0 Bft) 0,00 %
03.10.2015 17:11 22,4 C 44 % 1014,0 hPa 0,0 l/m 0,0 km/h (0 Bft) S 181 5 min 0,000 mm 1,0 UV-I 653 W/m 9,5 C 22,4 C 0,0 km/h (0 Bft) 0,00 %
03.10.2015 17:16 22,1 C 45 % 1014,1 hPa 0,0 l/m 0,0 km/h (0 Bft) NW 326 5 min 0,000 mm 1,0 UV-I 602 W/m 9,6 C 22,1 C 0,0 km/h (0 Bft) 0,00 %
03.10.2015 17:21 22,1 C 45 % 1014,0 hPa 0,0 l/m 0,0 km/h (0 Bft) NW 326 5 min 0,000 mm 1,0 UV-I 602 W/m 9,6 C 22,1 C 0,0 km/h (0 Bft) 0,00 %
03.10.2015 17:26 22,1 C 45 % 1013,9 hPa 0,0 l/m 0,0 km/h (0 Bft) NW 326 5 min 0,000 mm 1,0 UV-I 602 W/m 9,6 C 22,1 C 0,0 km/h (0 Bft) 0,00 %
03.10.2015 17:31 22,1 C 45 % 1014,0 hPa 0,0 l/m 0,0 km/h (0 Bft) NW 326 5 min 0,000 mm 1,0 UV-I 602 W/m 9,6 C 22,1 C 0,0 km/h (0 Bft) 0,00 %
03.10.2015 17:36 22,1 C 45 % 1013,9 hPa 0,0 l/m 0,0 km/h (0 Bft) NW 326 5 min 0,000 mm 1,0 UV-I 602 W/m 9,6 C 22,1 C 0,0 km/h (0 Bft) 0,00 %
03.10.2015 17:41 22,1 C 45 % 1014,0 hPa 0,0 l/m 0,0 km/h (0 Bft) NW 326 5 min 0,000 mm 1,0 UV-I 602 W/m 9,6 C 22,1 C 0,0 km/h (0 Bft) 0,00 %
03.10.2015 17:46 22,1 C 45 % 1013,9 hPa 0,0 l/m 0,0 km/h (0 Bft) NW 326 5 min 0,000 mm 1,0 UV-I 602 W/m 9,6 C 22,1 C 0,0 km/h (0 Bft) 0,00 %
03.10.2015 17:51 21,8 C 45 % 1013,8 hPa 0,0 l/m 0,0 km/h (0 Bft) O-NO 63 5 min 0,000 mm 0,0 UV-I 330 W/m 9,3 C 21,8 C 0,0 km/h (0 Bft) 0,00 %
03.10.2015 17:56 22,1 C 47 % 1013,9 hPa 0,0 l/m 0,0 km/h (0 Bft) O-NO 71 5 min 0,000 mm 0,0 UV-I 280 W/m 10,3 C 22,1 C 0,0 km/h (0 Bft) 0,00 %
03.10.2015 18:01 22,0 C 48 % 1013,9 hPa 0,0 l/m 0,0 km/h (0 Bft) O-NO 67 5 min 0,000 mm 0,0 UV-I 242 W/m 10,5 C 22,0 C 0,0 km/h (0 Bft) 0,00 %
03.10.2015 18:06 21,9 C 50 % 1013,9 hPa 0,0 l/m 0,0 km/h (0 Bft) O-NO 67 5 min 0,000 mm 0,0 UV-I 202 W/m 11,0 C 21,9 C 0,0 km/h (0 Bft) 0,00 %
03.10.2015 18:11 21,5 C 50 % 1013,8 hPa 0,0 l/m 0,0 km/h (0 Bft) O-NO 76 5 min 0,000 mm 0,0 UV-I 156 W/m 10,6 C 21,5 C 0,0 km/h (0 Bft) 0,00 %
03.10.2015 18:16 21,2 C 53 % 1014,0 hPa 0,0 l/m 0,0 km/h (0 Bft) O-NO 69 5 min 0,000 mm 0,0 UV-I 123 W/m 11,2 C 21,2 C 0,0 km/h (0 Bft) 0,00 %
03.10.2015 18:21 20,2 C 53 % 1013,9 hPa 0,0 l/m 0,0 km/h (0 Bft) O-NO 78 5 min 0,000 mm 0,0 UV-I 92 W/m 10,3 C 20,2 C 0,0 km/h (0 Bft) 0,00 %
03.10.2015 18:29 19,1 C 57 % 1014,8 hPa 0,0 l/m 0,0 km/h (0 Bft) O 88 8 min 0,000 mm 0,0 UV-I 17 W/m 10,4 C 19,1 C 0,0 km/h (0 Bft) 0,00 %
03.10.2015 18:34 19,1 C 58 % 1014,6 hPa 0,0 l/m 0,0 km/h (0 Bft) O-NO 75 0 min 0,000 mm 0,0 UV-I 7 W/m 10,6 C 19,1 C 0,0 km/h (0 Bft) 0,00 %
03.10.2015 18:39 19,0 C 58 % 1014,6 hPa 0,0 l/m 0,0 km/h (0 Bft) O-NO 74 0 min 0,000 mm 0,0 UV-I 4 W/m 10,5 C 19,0 C 0,0 km/h (0 Bft) 0,00 %
03.10.2015 18:45 18,9 C 60 % 1014,6 hPa 0,0 l/m 0,0 km/h (0 Bft) O-NO 72 0 min 0,000 mm 0,0 UV-I 0 W/m 11,0 C 18,9 C 0,0 km/h (0 Bft) 0,00 %
03.10.2015 18:50 17,0 C 64 % 1014,6 hPa 0,0 l/m 0,0 km/h (0 Bft) O 79 0 min 0,000 mm 0,0 UV-I 0 W/m 10,1 C 17,0 C 0,0 km/h (0 Bft) 0,00 %
03.10.2015 18:55 17,0 C 65 % 1014,6 hPa 0,0 l/m 0,0 km/h (0 Bft) O-NO 64 0 min 0,000 mm 0,0 UV-I 0 W/m 10,4 C 17,0 C 0,0 km/h (0 Bft) 0,00 %
03.10.2015 19:00 16,0 C 67 % 1014,7 hPa 0,0 l/m 0,0 km/h (0 Bft) O-NO 58 0 min 0,000 mm 0,0 UV-I 0 W/m 9,9 C 16,0 C 0,0 km/h (0 Bft) 0,00 %
03.10.2015 19:05 16,0 C 67 % 1014,7 hPa 0,0 l/m 0,0 km/h (0 Bft) O-NO 58 0 min 0,000 mm 0,0 UV-I 0 W/m 9,9 C 16,0 C 0,0 km/h (0 Bft) 0,00 %
03.10.2015 19:14 15,0 C 72 % 1014,4 hPa 0,0 l/m 0,0 km/h (0 Bft) O-NO 66 0 min 0,000 mm 0,0 UV-I 0 W/m 10,0 C 15,0 C 0,0 km/h (0 Bft) 0,00 %
03.10.2015 19:19 14,9 C 73 % 1014,5 hPa 0,0 l/m 0,0 km/h (0 Bft) O-SO 109 0 min 0,000 mm 0,0 UV-I 0 W/m 10,1 C 14,9 C 0,0 km/h (0 Bft) 0,00 %
03.10.2015 19:24 14,6 C 74 % 1014,5 hPa 0,0 l/m 0,0 km/h (0 Bft) O 100 0 min 0,000 mm 0,0 UV-I 0 W/m 10,0 C 14,6 C 0,0 km/h (0 Bft) 0,00 %
03.10.2015 19:29 14,4 C 75 % 1014,7 hPa 0,0 l/m 0,0 km/h (0 Bft) O-SO 110 0 min 0,000 mm 0,0 UV-I 0 W/m 10,0 C 14,4 C 0,0 km/h (0 Bft) 0,00 %
03.10.2015 19:34 14,2 C 76 % 1014,7 hPa 0,0 l/m 0,0 km/h (0 Bft) O-NO 67 0 min 0,000 mm 0,0 UV-I 0 W/m 10,0 C 14,2 C 0,0 km/h (0 Bft) 0,00 %
03.10.2015 19:39 14,1 C 77 % 1014,5 hPa 0,0 l/m 0,0 km/h (0 Bft) O 81 0 min 0,000 mm 0,0 UV-I 0 W/m 10,1 C 14,1 C 0,0 km/h (0 Bft) 0,00 %
03.10.2015 19:44 13,9 C 78 % 1014,6 hPa 0,0 l/m 0,0 km/h (0 Bft) O-NO 70 0 min 0,000 mm 0,0 UV-I 0 W/m 10,1 C 13,9 C 0,0 km/h (0 Bft) 0,00 %
03.10.2015 19:49 13,7 C 79 % 1014,6 hPa 0,0 l/m 0,0 km/h (0 Bft) O-NO 72 0 min 0,000 mm 0,0 UV-I 0 W/m 10,1 C 13,7 C 0,0 km/h (0 Bft) 0,00 %
03.10.2015 19:54 13,5 C 79 % 1014,9 hPa 0,0 l/m 0,0 km/h (0 Bft) O-NO 68 0 min 0,000 mm 0,0 UV-I 0 W/m 9,9 C 13,5 C 0,0 km/h (0 Bft) 0,00 %
03.10.2015 19:59 13,3 C 81 % 1014,6 hPa 0,0 l/m 0,0 km/h (0 Bft) O-NO 72 0 min 0,000 mm 0,0 UV-I 0 W/m 10,1 C 13,3 C 0,0 km/h (0 Bft) 0,00 %
03.10.2015 20:04 12,9 C 82 % 1014,7 hPa 0,0 l/m 0,0 km/h (0 Bft) SO 128 0 min 0,000 mm 0,0 UV-I 0 W/m 9,9 C 12,9 C 0,0 km/h (0 Bft) 0,00 %
03.10.2015 20:09 12,7 C 83 % 1014,7 hPa 0,0 l/m 0,0 km/h (0 Bft) O 100 0 min 0,000 mm 0,0 UV-I 0 W/m 9,9 C 12,7 C 0,0 km/h (0 Bft) 0,00 %
03.10.2015 20:14 12,7 C 83 % 1014,9 hPa 0,0 l/m 0,0 km/h (0 Bft) O-SO 111 0 min 0,000 mm 0,0 UV-I 0 W/m 9,9 C 12,7 C 0,0 km/h (0 Bft) 0,00 %
03.10.2015 20:19 12,7 C 83 % 1014,9 hPa 0,0 l/m 0,0 km/h (0 Bft) SO 129 0 min 0,000 mm 0,0 UV-I 0 W/m 9,9 C 12,7 C 0,0 km/h (0 Bft) 0,00 %
03.10.2015 20:24 12,7 C 83 % 1014,8 hPa 0,0 l/m 0,0 km/h (0 Bft) O-SO 103 0 min 0,000 mm 0,0 UV-I 0 W/m 9,9 C 12,7 C 0,0 km/h (0 Bft) 0,00 %
03.10.2015 20:29 12,7 C 84 % 1014,9 hPa 0,0 l/m 0,0 km/h (0 Bft) O-NO 60 0 min 0,000 mm 0,0 UV-I 0 W/m 10,1 C 12,7 C 0,0 km/h (0 Bft) 0,00 %
03.10.2015 20:34 12,6 C 84 % 1014,9 hPa 0,0 l/m 0,0 km/h (0 Bft) O-NO 69 0 min 0,000 mm 0,0 UV-I 0 W/m 10,0 C 12,6 C 0,0 km/h (0 Bft) 0,00 %
03.10.2015 20:39 12,6 C 84 % 1014,7 hPa 0,0 l/m 0,0 km/h (0 Bft) O-NO 74 0 min 0,000 mm 0,0 UV-I 0 W/m 10,0 C 12,6 C 0,0 km/h (0 Bft) 0,00 %
03.10.2015 20:44 12,6 C 84 % 1014,9 hPa 0,0 l/m 0,0 km/h (0 Bft) O 90 0 min 0,000 mm 0,0 UV-I 0 W/m 10,0 C 12,6 C 0,0 km/h (0 Bft) 0,00 %
03.10.2015 20:49 12,6 C 84 % 1014,9 hPa 0,0 l/m 0,0 km/h (0 Bft) SO 140 0 min 0,000 mm 0,0 UV-I 0 W/m 10,0 C 12,6 C 0,0 km/h (0 Bft) 0,00 %
03.10.2015 20:54 12,5 C 84 % 1014,9 hPa 0,0 l/m 0,0 km/h (0 Bft) SO 140 0 min 0,000 mm 0,0 UV-I 0 W/m 9,9 C 12,5 C 0,0 km/h (0 Bft) 0,00 %
03.10.2015 20:59 12,5 C 84 % 1015,0 hPa 0,0 l/m 0,0 km/h (0 Bft) SO 140 0 min 0,000 mm 0,0 UV-I 0 W/m 9,9 C 12,5 C 0,0 km/h (0 Bft) 0,00 %
03.10.2015 21:04 12,5 C 84 % 1015,0 hPa 0,0 l/m 0,0 km/h (0 Bft) SO 140 0 min 0,000 mm 0,0 UV-I 0 W/m 9,9 C 12,5 C 0,0 km/h (0 Bft) 0,00 %
03.10.2015 21:09 12,3 C 85 % 1015,0 hPa 0,0 l/m 0,0 km/h (0 Bft) SO 140 0 min 0,000 mm 0,0 UV-I 0 W/m 9,9 C 12,3 C 0,0 km/h (0 Bft) 0,00 %
03.10.2015 21:14 12,2 C 85 % 1014,9 hPa 0,0 l/m 0,0 km/h (0 Bft) SO 140 0 min 0,000 mm 0,0 UV-I 0 W/m 9,8 C 12,2 C 0,0 km/h (0 Bft) 0,00 %
03.10.2015 21:19 12,1 C 85 % 1014,9 hPa 0,0 l/m 0,0 km/h (0 Bft) SO 131 0 min 0,000 mm 0,0 UV-I 0 W/m 9,7 C 12,1 C 0,0 km/h (0 Bft) 0,00 %
03.10.2015 21:24 11,9 C 86 % 1014,7 hPa 0,0 l/m 0,0 km/h (0 Bft) SO 131 0 min 0,000 mm 0,0 UV-I 0 W/m 9,6 C 11,9 C 0,0 km/h (0 Bft) 0,00 %
03.10.2015 21:29 11,8 C 87 % 1014,9 hPa 0,0 l/m 0,0 km/h (0 Bft) SO 131 0 min 0,000 mm 0,0 UV-I 0 W/m 9,7 C 11,8 C 0,0 km/h (0 Bft) 0,00 %
03.10.2015 21:34 11,6 C 88 % 1014,9 hPa 0,0 l/m 0,0 km/h (0 Bft) SO 131 0 min 0,000 mm 0,0 UV-I 0 W/m 9,7 C 11,6 C 0,0 km/h (0 Bft) 0,00 %
03.10.2015 21:39 11,5 C 88 % 1014,8 hPa 0,0 l/m 0,0 km/h (0 Bft) SO 131 0 min 0,000 mm 0,0 UV-I 0 W/m 9,6 C 11,5 C 0,0 km/h (0 Bft) 0,00 %
03.10.2015 21:44 11,3 C 88 % 1014,8 hPa 0,0 l/m 0,0 km/h (0 Bft) O-NO 73 0 min 0,000 mm 0,0 UV-I 0 W/m 9,4 C 11,3 C 0,0 km/h (0 Bft) 0,00 %
03.10.2015 21:49 11,2 C 88 % 1014,9 hPa 0,0 l/m 0,0 km/h (0 Bft) O-SO 102 0 min 0,000 mm 0,0 UV-I 0 W/m 9,3 C 11,2 C 0,0 km/h (0 Bft) 0,00 %
03.10.2015 21:54 11,1 C 89 % 1014,8 hPa 0,0 l/m 0,0 km/h (0 Bft) S 182 0 min 0,000 mm 0,0 UV-I 0 W/m 9,4 C 11,1 C 0,0 km/h (0 Bft) 0,00 %
03.10.2015 21:59 11,1 C 89 % 1014,9 hPa 0,0 l/m 0,0 km/h (0 Bft) O-NO 77 0 min 0,000 mm 0,0 UV-I 0 W/m 9,4 C 11,1 C 0,0 km/h (0 Bft) 0,00 %
03.10.2015 22:04 11,1 C 89 % 1014,8 hPa 0,0 l/m 0,0 km/h (0 Bft) SW 221 0 min 0,000 mm 0,0 UV-I 0 W/m 9,4 C 11,1 C 0,0 km/h (0 Bft) 0,00 %
03.10.2015 22:09 11,1 C 89 % 1014,9 hPa 0,0 l/m 0,7 km/h (0 Bft) S-SW 207 0 min 0,000 mm 0,0 UV-I 0 W/m 9,4 C 11,1 C 4,0 km/h (1 Bft) 0,00 %
03.10.2015 22:14 11,3 C 89 % 1015,1 hPa 0,0 l/m 0,0 km/h (0 Bft) O 80 0 min 0,000 mm 0,0 UV-I 0 W/m 9,6 C 11,3 C 0,0 km/h (0 Bft) 0,00 %
03.10.2015 22:19 11,3 C 88 % 1015,0 hPa 0,0 l/m 0,0 km/h (0 Bft) O 89 0 min 0,000 mm 0,0 UV-I 0 W/m 9,4 C 11,3 C 0,0 km/h (0 Bft) 0,00 %
03.10.2015 22:24 11,3 C 88 % 1015,1 hPa 0,0 l/m 0,0 km/h (0 Bft) O-NO 74 0 min 0,000 mm 0,0 UV-I 0 W/m 9,4 C 11,3 C 0,0 km/h (0 Bft) 0,00 %
03.10.2015 22:29 11,1 C 88 % 1014,9 hPa 0,0 l/m 0,0 km/h (0 Bft) O-NO 68 0 min 0,000 mm 0,0 UV-I 0 W/m 9,2 C 11,1 C 0,0 km/h (0 Bft) 0,00 %
03.10.2015 22:34 10,9 C 89 % 1014,9 hPa 0,0 l/m 0,0 km/h (0 Bft) O-NO 72 0 min 0,000 mm 0,0 UV-I 0 W/m 9,2 C 10,9 C 0,0 km/h (0 Bft) 0,00 %
03.10.2015 22:39 10,8 C 90 % 1015,0 hPa 0,0 l/m 0,0 km/h (0 Bft) SO 133 0 min 0,000 mm 0,0 UV-I 0 W/m 9,2 C 10,8 C 0,0 km/h (0 Bft) 0,00 %
03.10.2015 22:44 10,8 C 90 % 1015,0 hPa 0,0 l/m 0,0 km/h (0 Bft) SO 133 0 min 0,000 mm 0,0 UV-I 0 W/m 9,2 C 10,8 C 0,0 km/h (0 Bft) 0,00 %
03.10.2015 22:49 10,8 C 90 % 1014,9 hPa 0,0 l/m 0,0 km/h (0 Bft) SO 133 0 min 0,000 mm 0,0 UV-I 0 W/m 9,2 C 10,8 C 0,0 km/h (0 Bft) 0,00 %
03.10.2015 22:54 10,8 C 90 % 1014,9 hPa 0,0 l/m 0,0 km/h (0 Bft) SO 133 0 min 0,000 mm 0,0 UV-I 0 W/m 9,2 C 10,8 C 0,0 km/h (0 Bft) 0,00 %
03.10.2015 22:59 10,7 C 90 % 1015,0 hPa 0,0 l/m 0,0 km/h (0 Bft) SO 133 0 min 0,000 mm 0,0 UV-I 0 W/m 9,1 C 10,7 C 0,0 km/h (0 Bft) 0,00 %
03.10.2015 23:04 10,6 C 90 % 1015,1 hPa 0,0 l/m 0,0 km/h (0 Bft) SO 133 0 min 0,000 mm 0,0 UV-I 0 W/m 9,0 C 10,6 C 0,0 km/h (0 Bft) 0,00 %
03.10.2015 23:09 10,5 C 90 % 1015,0 hPa 0,0 l/m 0,0 km/h (0 Bft) SO 133 0 min 0,000 mm 0,0 UV-I 0 W/m 8,9 C 10,5 C 0,0 km/h (0 Bft) 0,00 %
03.10.2015 23:14 10,3 C 92 % 1014,9 hPa 0,0 l/m 0,0 km/h (0 Bft) SO 133 0 min 0,000 mm 0,0 UV-I 0 W/m 9,1 C 10,3 C 0,0 km/h (0 Bft) 0,00 %
03.10.2015 23:19 10,1 C 92 % 1015,0 hPa 0,0 l/m 0,0 km/h (0 Bft) SO 133 0 min 0,000 mm 0,0 UV-I 0 W/m 8,9 C 10,1 C 0,0 km/h (0 Bft) 0,00 %
03.10.2015 23:24 10,0 C 93 % 1015,1 hPa 0,0 l/m 0,0 km/h (0 Bft) SO 133 0 min 0,000 mm 0,0 UV-I 0 W/m 8,9 C 10,0 C 0,0 km/h (0 Bft) 0,00 %
03.10.2015 23:29 9,9 C 93 % 1015,1 hPa 0,0 l/m 0,0 km/h (0 Bft) SO 133 0 min 0,000 mm 0,0 UV-I 0 W/m 8,8 C 9,9 C 0,0 km/h (0 Bft) 0,00 %
03.10.2015 23:34 9,8 C 93 % 1014,9 hPa 0,0 l/m 0,0 km/h (0 Bft) SO 133 0 min 0,000 mm 0,0 UV-I 0 W/m 8,7 C 9,8 C 0,0 km/h (0 Bft) 0,00 %
03.10.2015 23:39 9,6 C 93 % 1015,0 hPa 0,0 l/m 0,0 km/h (0 Bft) O 85 0 min 0,000 mm 0,0 UV-I 0 W/m 8,5 C 9,6 C 0,0 km/h (0 Bft) 0,00 %
03.10.2015 23:44 9,6 C 94 % 1015,0 hPa 0,0 l/m 0,0 km/h (0 Bft) O-NO 72 0 min 0,000 mm 0,0 UV-I 0 W/m 8,7 C 9,6 C 0,0 km/h (0 Bft) 0,00 %
03.10.2015 23:49 9,5 C 94 % 1014,8 hPa 0,0 l/m 0,0 km/h (0 Bft) O-NO 66 0 min 0,000 mm 0,0 UV-I 0 W/m 8,6 C 9,5 C 0,0 km/h (0 Bft) 0,00 %
03.10.2015 23:54 9,4 C 94 % 1014,7 hPa 0,0 l/m 0,0 km/h (0 Bft) O-SO 122 0 min 0,000 mm 0,0 UV-I 0 W/m 8,5 C 9,4 C 0,0 km/h (0 Bft) 0,00 %
03.10.2015 23:59 9,3 C 94 % 1014,8 hPa 0,0 l/m 0,0 km/h (0 Bft) O-SO 105 0 min 0,000 mm 0,0 UV-I 0 W/m 8,4 C 9,3 C 0,0 km/h (0 Bft) 0,00 %
_ Min-Zeit 06:54 17:06 17:51 - 00:04 - - - - - - 06:54 06:54 00:04 00:04
Minimum _ 4,9 C 44 % 1013,8 hPa - 0,0 km/h (0 Bft) - - - - - - 4,2 C 4,9 C 0,0 km/h (0 Bft) 0,00 %
_ Max-Zeit 17:06 07:34 00:04 00:04 10:29 - - 18:29 00:04 10:44 14:05 18:16 17:06 16:25 00:04
Maximum _ 22,4 C 97 % 1018,3 hPa 0,0 l/m 7,2 km/h
O-SO (2 Bft)
- - 8 min 0,000 mm 2,0 UV-I 778 W/m 11,2 C 22,4 C 15,8 km/h
O (3 Bft)
0,00 %
Durchschnitt _ 12,6 C 74 % 1015,8 hPa #0,0 l/m 0,2 km/h (0 Bft) O-SO - #6:54 h #0,000 mm 1,3 UV-I 316 W/m 7,5 C 12,6 C 0,7 km/h (0 Bft) 0,00 %